Location: Vale
(35.4830°N, 81.3830°W)
Time: 00:24:19
(UTC-04:00)

Cosmos 2237 Rocket - Visible Passes

Search period start: 05 July 2015 00:00
Search period end: 15 July 2015 00:00
Orbit: 836 x 849 km, 71.0° (Epoch: 04 July)

Date Brightness Start Highest point End Pass type
(mag) Time Alt. Az. Time Alt. Az. Time Alt. Az.
05 Jul 3.9 00:33:38 10° N 00:37:50 22° ENE 00:38:35 21° ENE visible
05 Jul 3.3 02:16:50 10° NW 02:20:23 35° WNW 02:20:23 35° WNW visible
06 Jul 3.9 00:18:55 10° N 00:23:00 21° NE 00:23:47 20° ENE visible
06 Jul 3.2 02:02:00 10° NNW 02:05:36 36° WNW 02:05:36 36° WNW visible
07 Jul 4.0 00:04:13 10° N 00:08:10 20° NE 00:09:03 19° ENE visible
07 Jul 3.2 01:47:11 10° NNW 01:50:51 38° NW 01:50:51 38° NW visible
07 Jul 4.0 23:49:31 10° NNE 23:53:20 19° NE 23:54:20 18° ENE visible
08 Jul 3.1 01:32:21 10° NNW 01:36:08 40° NW 01:36:08 40° NW visible
08 Jul 4.0 23:34:50 10° NNE 23:38:30 18° NE 23:39:40 17° ENE visible
09 Jul 3.1 01:17:32 10° NNW 01:21:28 43° NW 01:21:28 43° NW visible
09 Jul 4.0 23:20:08 10° NNE 23:23:40 17° NE 23:25:01 16° ENE visible
10 Jul 2.9 01:02:43 10° NNW 01:06:50 46° NW 01:06:50 46° NW visible
10 Jul 4.1 23:05:28 10° NNE 23:08:50 16° NE 23:10:25 15° ENE visible
11 Jul 2.8 00:47:55 10° NNW 00:52:14 50° NW 00:52:14 50° NW visible
11 Jul 4.1 22:50:49 10° NNE 22:53:59 16° NE 22:55:50 14° ENE visible
12 Jul 2.6 00:33:06 10° NNW 00:37:39 56° NW 00:37:39 56° NW visible
12 Jul 4.2 22:36:10 10° NNE 22:39:09 15° NE 22:41:18 13° ENE visible
13 Jul 2.5 00:18:18 10° NNW 00:23:07 62° NW 00:23:07 62° NW visible
13 Jul 4.2 22:21:31 10° NNE 22:24:18 14° NE 22:26:47 11° E visible
14 Jul 2.3 00:03:30 10° NNW 00:08:37 70° WNW 00:08:37 70° WNW visible
14 Jul 4.2 22:06:55 10° NNE 22:09:27 13° NE 22:12:17 10° E visible
14 Jul 2.1 23:48:42 10° NNW 23:54:08 79° WNW 23:54:08 79° WNW visible
